Location: Friaudour
(46.0460°N, 1.2873°E)
Time: 20:59:59
(UTC+00:00)

Cosmos 1470 Rocket - Pass Details

Date: 14 July 2020
Orbit: 603 x 635 km, 82.5° (Epoch: 14 August)

Event Time Altitude Azimuth Distance (km) Brightness Sun altitude
Exits shadow 01:16:51 38° 247° (WSW) 979 4.2 -20.2°
Maximum altitude 01:17:53 45° 284° (WNW) 876 4.2 -20.1°
Drops below altitude 10° 01:22:13 10° 357° (N) 2,030 7.2 -19.9°
Sets 01:24:33 0° 4° (N) 2,942 8.4 -19.7°
